Location: Unspecified
(0.0000°N, 0.0000°E)
Time: 23:26:55
(UTC+00:00)

Courier 1B Rocket - Pass Details

Date: 07 October 2020
Orbit: 920 x 1202 km, 28.2° (Epoch: 28 October)

Event Time Altitude Azimuth Distance (km) Brightness Sun altitude
Rises 19:52:46 0° 215° (SW) 4,042 8.8 -31.1°
Reaches altitude 10° 19:56:45 10° 196° (SSW) 3,109 7.8 -32.1°
Enters shadow 20:00:27 17° 168° (SSE) 2,626 7.1 -33.0°
Maximum altitude 20:01:39 18° 157° (SSE) 2,594 - -33.3°
Drops below altitude 10° 20:06:33 10° 117° (ESE) 3,129 - -34.5°
Sets 20:10:33 0° 99° (E) 4,077 - -35.5°
